Location: Lima
(44.6384°N, 112.5920°W)
Time: 22:58:25
(UTC+00:00)

NOAA 15 - Visible Passes

Search period start: 23 April 2024 00:00
Search period end: 03 May 2024 00:00
Orbit: 795 x 811 km, 98.6° (Epoch: 23 April)

Date Brightness Start Highest point End Pass type
(mag) Time Alt. Az. Time Alt. Az. Time Alt. Az.
24 Apr 7.6 04:01:49 10° WSW 04:03:13 11° W 04:04:35 10° WNW visible
25 Apr 7.2 03:33:29 10° SW 03:37:12 19° W 03:40:55 10° NW visible
26 Apr 6.5 03:06:37 10° SSW 03:11:17 32° W 03:15:58 10° NNW visible
28 Apr 7.5 03:58:23 10° WSW 04:00:13 12° W 04:02:03 10° WNW visible
29 Apr 7.2 03:30:22 10° SW 03:34:13 20° W 03:38:04 10° NW visible
30 Apr 6.4 03:03:35 10° SSW 03:08:18 34° W 03:13:03 10° NNW visible
02 May 7.4 03:55:02 10° WSW 03:57:13 12° W 03:59:24 10° WNW visible
